STARLINK-5779 (56028 NORAD) Tracking and Keplerian Element Data

This shows tracking and keplerian element data for the satellite.

Feedback or suggestion? Click here.




ElementValue
Catalog56028
NameSTARLINK-5779
Epoch Orbit718
Epoch Day127.08334491
Epoch Year2023
RAAN292.6831
Inclination42.9991
Eccentricity0.0001607
Argument of Perigee272.521
Mean Anonmoly65.3029
Mean Motion15.54860135
Decay Rate-0.00968129
L11 56028U 23042AU 23127.08334491 -.00968129 00000+0 -15419-1 0 9996
L22 56028 42.9991 292.6831 0001607 272.5210 65.3029 15.54860135 7180



Live tracking and technical data element details for STARLINK-5779 (NORAD 56028). STARLINK-5779 can be tracked NOW for your location showing map with azimuth and elevation plus other details from your city location.







IsCatalogInMostPopularTable: catalog: 56028, numindb: 1
Update: records affected: 1



GetName: 56028 STARLINK-5779

Hit Count: updated at: Sun, 04 Jun 2023 23:15:54 GMT